Regional Weather Roundup
Issued by NWS Portland, ME

Current Version | Previous Version | Text Only | Print | Product List | Glossary Off
Versions: 1 2 3 4 5 6 7 8 9 10 11 12 13 14 15 16 17 18 19 20 21 22 23 24 25 26 27 28 29 30 31 32 33 34 35 36 37 38 39 40 41 42 43 44 45 46 47 48 49 50
000 ASUS41 KGYX 230705 RWRGYX WEATHER ROUNDUP FOR MAINE AND NEW HAMPSHIRE NATIONAL WEATHER SERVICE GRAY ME 300 AM EDT SAT AUG 23 2014 MEZ002-005-006-010-012-015-018-020-021-024-026-027-029-230800- MAINE CITY SKY/WX TMP DP RH WIND PRES REMARKS PORTLAND PTCLDY 55 54 96 W6 30.12F SANFORD PTCLDY 54 48 82 CALM 30.13S BAR HARBOR CLOUDY 63 61 94 CALM 30.11S WISCASSET CLOUDY 59 57 93 CALM 30.13S ROCKLAND CLOUDY 61 57 88 CALM 30.10S FRYEBURG CLOUDY 56 55 97 CALM 30.15S LEWISTONAUBURN CLOUDY 57 54 88 CALM 30.13S AUGUSTA CLOUDY 61 59 93 NW5 30.13S WATERVILLE CLOUDY 61 57 88 N6 30.10R BANGOR CLOUDY 63 58 83 N5 30.13S GREENVILLE N/A 57 55 93 NE5 30.14S MILLINOCKET CLOUDY 61 57 87 CALM 30.15S HOULTON CLOUDY 58 56 93 CALM 30.13F PRESQUE ISLE CLOUDY 55 52 88 CALM 30.14S FRENCHVILLE FOG 53 53 100 N3 30.15S VSB 1/4 CARIBOU CLEAR 56 54 93 CALM 30.14S $$ NHZ002-005-008-009-011-012-014-230800- NEW HAMPSHIRE CITY SKY/WX TMP DP RH WIND PRES REMARKS PORTSMOUTH MOCLDY 59 55 87 N7 30.11S ROCHESTER MOCLDY 58 54 86 N5 30.12S NASHUA MOCLDY 61 57 86 CALM 30.12F MANCHESTER CLOUDY 62 55 77 N5 30.10F CONCORD MOCLDY 59 57 93 NW3 30.12F LACONIA CLOUDY 61 54 77 E3 30.12S PLYMOUTH CLOUDY 59 59 100 CALM 30.13S BERLIN FOG 55 55 100 CALM 30.16S VSB 1/4 WHITEFIELD MOCLDY 59 57 93 CALM 30.14F JAFFREY CLOUDY 58 57 97 CALM 30.13F LEBANON CLOUDY 61 58 90 CALM 30.12F MT WASHINGTON FOG 41 41 100 E13 N/A VSB 1/16 $$ VTZ005-007-008-230800- VERMONT CITY SKY/WX TMP DP RH WIND PRES REMARKS ST JOHNSBURY N/A 61 60 97 MISG 30.12F MONTPELIER CLOUDY 58 57 97 CALM 30.18S BURLINGTON MOCLDY 62 59 90 E3 30.11F $$ MAZ007-012-024-CTZ003-RIZ002-NYZ038-NYZ072-230800- SOUTHERN NEW ENGLAND AND NY CITY SKY/WX TMP DP RH WIND PRES REMARKS BOSTON CLOUDY 64 61 88 N7 30.09F WORCESTER CLOUDY 59 57 93 NE7 30.11F NANTUCKET PTCLDY 61 59 93 NE8 30.04F PROVIDENCE MOCLDY 64 60 87 NE9 30.08F HARTFORD MOCLDY 64 60 87 N7 30.08S ALBANY CLOUDY 64 61 90 N3 30.09S NEW YORK CITY PTCLDY 68 59 73 E10 30.04F $$ ANZ081-ANZ082-ANZ150-NHZ014-MEZ023>029-230800- COASTAL MARINE OBSERVATIONS STATION/POSITION TIME TEMP WIND PRES WAVE AIR SEA DIR/SP/G HT/PER (UTC) (F) (DEG/KT/KT) (MB) (FT/S) MATINICUS ROCK 0600 350/ 8/ 9 1018.9F PORTLAND WX BUOY 0650 61 62 350/ 6/ 8 1019.7F 2/ 8 WELLS 0600 58 62 10/ 5/ 6 1019.1F ISLE OF SHOALS 0600 62 30/ 13/ 14 1018.9F JEFFREYS LEDGE 0621 66 N/A 3/ 7 CASHES LEDGE BUO 0650 64 67 1018.3F 3/ 8 $$ .............KEY.............. WCI - WIND CHILL TC - TEMPERATURE IN CELSIUS VSB - VISIBILITY IN MILES HX - HEAT INDEX FAIR- INDICATES FEW OR NO CLOUDS BELOW 12,000 FT, WITH NO SIGNIFICANT WEATHER AND/OR OBSTRUCTIONS TO VISIBILITY.

USA.gov is the U.S. government's official web portal to all federal, state and local government web resources and services.